,,PA_Meas_PMT16A,,PR_Meas_QMR101_102,,RH_Meas_QMH101,,SR_Meas_QMS101,,TA_Meas_QMH101,,GenWind,,GenWind,
time,status,PA,status,PR,status,RH,status,SR,status,TA,status,DirAvg,status,SpdAvg,
2010-11-14, 00:00:04,VALID,917.272,VALID,0,VALID,94.5227,VALID,0,VALID,19.1958,VALID,353,VALID,0.660547,
2010-11-14, 00:01:04,VALID,917.28,VALID,0,VALID,94.3169,VALID,0,VALID,19.1944,VALID,353,VALID,0.593359,
2010-11-14, 00:02:04,VALID,917.286,VALID,0,VALID,94.0958,VALID,0,VALID,19.1958,VALID,353,VALID,0.512891,
2010-11-14, 00:03:04,VALID,917.27,VALID,0,VALID,94.2559,VALID,0,VALID,19.1763,VALID,353,VALID,0.844141,
2010-11-14, 00:04:04,VALID,917.279,VALID,0,VALID,94.3855,VALID,0,VALID,19.1749,VALID,353,VALID,0.847656,
2010-11-14, 00:05:04,VALID,917.284,VALID,0,VALID,94.2864,VALID,0,VALID,19.1944,VALID,353,VALID,0.621875,
2010-11-14, 00:06:04,VALID,917.277,VALID,0,VALID,94.0958,VALID,0,VALID,19.1944,VALID,353,VALID,0.499219,
2010-11-14, 00:07:04,VALID,917.268,VALID,0,VALID,94.1721,VALID,0,VALID,19.2153,VALID,353,VALID,0.525,
2010-11-14, 00:08:04,VALID,917.25,VALID,0,VALID,94.2483,VALID,0,VALID,19.1944,VALID,353,VALID,0.546484,
2010-11-14, 00:09:04,VALID,917.238,VALID,0,VALID,94.1492,VALID,0,VALID,19.1749,VALID,353,VALID,0.533984,
2010-11-14, 00:10:04,VALID,917.256,VALID,0,VALID,94.2483,VALID,0,VALID,19.1958,VALID,353,VALID,0.6125,
2010-11-14, 00:11:04,VALID,917.233,VALID,0,VALID,94.1568,VALID,0,VALID,19.1958,VALID,353,VALID,0.783594,
2010-11-14, 00:12:04,VALID,917.233,VALID,0,VALID,94.233,VALID,0,VALID,19.1763,VALID,353,VALID,0.601172,
2010-11-14, 00:13:04,VALID,917.275,VALID,0,VALID,94.3321,VALID,0,VALID,19.1763,VALID,353,VALID,0.51875,
2010-11-14, 00:14:04,VALID,917.249,VALID,0,VALID,94.2788,VALID,0,VALID,19.1554,VALID,353,VALID,0.178906,
2010-11-14, 00:15:04,VALID,917.299,VALID,0,VALID,94.3474,VALID,0,VALID,19.1568,VALID,353,VALID,0.216797,
2010-11-14, 00:16:04,VALID,917.325,VALID,0,VALID,94.4465,VALID,0,VALID,19.1554,VALID,353,VALID,0,
2010-11-14, 00:17:04,VALID,917.315,VALID,0,VALID,94.5456,VALID,0,VALID,19.1763,VALID,353,VALID,0,
2010-11-14, 00:18:04,VALID,917.286,VALID,0,VALID,94.477,VALID,0,VALID,19.1568,VALID,353,VALID,0,
2010-11-14, 00:19:04,VALID,917.318,VALID,0,VALID,94.3626,VALID,0,VALID,19.1583,VALID,353,VALID,0,
2010-11-14, 00:20:04,VALID,917.327,VALID,0,VALID,94.1492,VALID,0,VALID,19.0579,VALID,353,VALID,0.258203,
2010-11-14, 00:21:04,VALID,917.331,VALID,0,VALID,94.3779,VALID,0,VALID,19.0398,VALID,353,VALID,0.727734,
2010-11-14, 00:22:04,VALID,917.359,VALID,0,VALID,94.7133,VALID,0,VALID,19.0189,VALID,353,VALID,0.588672,
2010-11-14, 00:23:04,VALID,917.302,VALID,0,VALID,94.881,VALID,0,VALID,19.0203,VALID,353,VALID,0.517578,
2010-11-14, 00:24:04,VALID,917.318,VALID,0,VALID,95.0335,VALID,0,VALID,19.0203,VALID,353,VALID,0.48125,
2010-11-14, 00:25:04,VALID,917.307,VALID,0,VALID,95.2927,VALID,0,VALID,19.0189,VALID,353,VALID,0.748828,
2010-11-14, 00:26:04,VALID,917.289,VALID,0,VALID,95.2165,VALID,0,VALID,19.0593,VALID,353,VALID,0.485547,
2010-11-14, 00:27:04,VALID,917.302,VALID,0,VALID,95.186,VALID,0,VALID,19.0593,VALID,353,VALID,0.446484,
2010-11-14, 00:28:04,VALID,917.274,VALID,0,VALID,95.2165,VALID,0,VALID,19.0969,VALID,353,VALID,0.659375,
2010-11-14, 00:29:04,VALID,917.286,VALID,0,VALID,95.186,VALID,0,VALID,19.0969,VALID,353,VALID,0.350391,
2010-11-14, 00:30:04,VALID,917.256,VALID,0,VALID,95.0488,VALID,0,VALID,19.1373,VALID,353,VALID,0.3125,
2010-11-14, 00:31:04,VALID,917.25,VALID,0,VALID,95.0259,VALID,0,VALID,19.1373,VALID,353,VALID,0.162109,
2010-11-14, 00:32:04,VALID,917.286,VALID,0,VALID,95.0259,VALID,0,VALID,19.1359,VALID,353,VALID,0,
2010-11-14, 00:33:04,VALID,917.239,VALID,0,VALID,95.0488,VALID,0,VALID,19.1359,VALID,353,VALID,0.269922,
2010-11-14, 00:34:04,VALID,917.248,VALID,0,VALID,94.9954,VALID,0,VALID,19.1763,VALID,353,VALID,0.360547,
2010-11-14, 00:35:04,VALID,917.245,VALID,0,VALID,94.82,VALID,0,VALID,19.1568,VALID,353,VALID,0.498047,
2010-11-14, 00:36:04,VALID,917.231,VALID,0,VALID,94.7362,VALID,0,VALID,19.1359,VALID,353,VALID,0.416797,
2010-11-14, 00:37:04,VALID,917.233,VALID,0,VALID,94.6676,VALID,0,VALID,19.1178,VALID,353,VALID,0.4875,
2010-11-14, 00:38:04,VALID,917.224,VALID,0,VALID,94.66,VALID,0,VALID,19.1178,VALID,353,VALID,0.749609,
2010-11-14, 00:39:04,VALID,917.253,VALID,0,VALID,94.7438,VALID,0,VALID,19.1178,VALID,353,VALID,0.738672,
2010-11-14, 00:40:04,VALID,917.259,VALID,0,VALID,94.8124,VALID,0,VALID,19.0969,VALID,353,VALID,0.673047,
2010-11-14, 00:41:04,VALID,917.308,VALID,0,VALID,94.7286,VALID,0,VALID,19.1178,VALID,353,VALID,0.567187,
2010-11-14, 00:42:04,VALID,917.286,VALID,0,VALID,94.6752,VALID,0,VALID,19.1178,VALID,353,VALID,0.379297,
2010-11-14, 00:43:04,VALID,917.31,VALID,0,VALID,94.7514,VALID,0,VALID,19.1373,VALID,353,VALID,0.408203,
2010-11-14, 00:44:04,VALID,917.306,VALID,0,VALID,94.7819,VALID,0,VALID,19.1359,VALID,353,VALID,0.696484,
2010-11-14, 00:45:04,VALID,917.3,VALID,0,VALID,94.6828,VALID,0,VALID,19.1373,VALID,353,VALID,0.691797,
2010-11-14, 00:46:04,VALID,917.284,VALID,0,VALID,94.5609,VALID,0,VALID,19.1178,VALID,353,VALID,0.530078,
2010-11-14, 00:47:04,VALID,917.288,VALID,0,VALID,94.8658,VALID,0,VALID,19.1373,VALID,353,VALID,0.564453,
2010-11-14, 00:48:04,VALID,917.327,VALID,0,VALID,94.9725,VALID,0,VALID,19.1554,VALID,353,VALID,0.530078,
2010-11-14, 00:49:04,VALID,917.296,VALID,0,VALID,95.0259,VALID,0,VALID,19.1749,VALID,353,VALID,0.445313,
2010-11-14, 00:50:04,VALID,917.284,VALID,0,VALID,94.9725,VALID,0,VALID,19.2348,VALID,353,VALID,0.394922,
2010-11-14, 00:51:04,VALID,917.295,VALID,0,VALID,94.8887,VALID,0,VALID,19.2543,VALID,353,VALID,0.384375,
2010-11-14, 00:52:04,VALID,917.274,VALID,0,VALID,94.7896,VALID,0,VALID,19.2528,VALID,353,VALID,0.255078,
2010-11-14, 00:53:04,VALID,917.266,VALID,0,VALID,94.7057,VALID,0,VALID,19.3128,VALID,353,VALID,0.395703,
2010-11-14, 00:54:04,VALID,917.29,VALID,0,VALID,94.6295,VALID,0,VALID,19.3308,VALID,353,VALID,0.242969,
2010-11-14, 00:55:04,VALID,917.252,VALID,0,VALID,94.5837,VALID,0,VALID,19.3503,VALID,353,VALID,0.241406,
2010-11-14, 00:56:04,VALID,917.267,VALID,0,VALID,94.5304,VALID,0,VALID,19.4103,VALID,353,VALID,0.321094,
2010-11-14, 00:57:04,VALID,917.249,VALID,0,VALID,94.3779,VALID,0,VALID,19.4088,VALID,353,VALID,0.0304688,
2010-11-14, 00:58:04,VALID,917.189,VALID,0,VALID,94.2178,VALID,0,VALID,19.3893,VALID,353,VALID,0.259766,
2010-11-14, 00:59:04,VALID,917.213,VALID,0,VALID,93.9891,VALID,0,VALID,19.3923,VALID,353,VALID,0.367578,
2010-11-14, 01:00:04,VALID,917.18,VALID,0,VALID,94.0882,VALID,0,VALID,19.3728,VALID,353,VALID,0.453125,
2010-11-14, 01:01:04,VALID,917.169,VALID,0,VALID,94.1949,VALID,0,VALID,19.3323,VALID,353,VALID,0.219922,
2010-11-14, 01:02:04,VALID,917.177,VALID,0,VALID,94.3321,VALID,0,VALID,19.3323,VALID,353,VALID,0.155469,
2010-11-14, 01:03:04,VALID,917.167,VALID,0,VALID,94.4389,VALID,0,VALID,19.3128,VALID,353,VALID,0.133984,
2010-11-14, 01:04:04,VALID,917.183,VALID,0,VALID,94.5151,VALID,0,VALID,19.3323,VALID,353,VALID,0,
2010-11-14, 01:05:04,VALID,917.172,VALID,0,VALID,94.5456,VALID,0,VALID,19.3338,VALID,353,VALID,0.112109,
2010-11-14, 01:06:04,VALID,917.179,VALID,0,VALID,94.5913,VALID,0,VALID,19.3323,VALID,353,VALID,0.236719,
2010-11-14, 01:07:04,VALID,917.14,VALID,0,VALID,94.66,VALID,0,VALID,19.3128,VALID,353,VALID,0.218359,
2010-11-14, 01:08:04,VALID,917.167,VALID,0,VALID,94.6905,VALID,0,VALID,19.2933,VALID,353,VALID,0.159766,
2010-11-14, 01:09:04,VALID,917.149,VALID,0,VALID,94.7667,VALID,0,VALID,19.2738,VALID,353,VALID,0.178906,
2010-11-14, 01:10:04,VALID,917.174,VALID,0,VALID,94.8353,VALID,0,VALID,19.2738,VALID,353,VALID,0.2,
2010-11-14, 01:11:04,VALID,917.142,VALID,0,VALID,94.8505,VALID,0,VALID,19.2738,VALID,353,VALID,0.291406,
2010-11-14, 01:12:04,VALID,917.158,VALID,0,VALID,94.8429,VALID,0,VALID,19.2738,VALID,353,VALID,0.170312,
2010-11-14, 01:13:04,VALID,917.164,VALID,0,VALID,94.8734,VALID,0,VALID,19.2933,VALID,353,VALID,0.252344,
2010-11-14, 01:14:04,VALID,917.171,VALID,0,VALID,94.8505,VALID,0,VALID,19.2918,VALID,353,VALID,0.133984,
2010-11-14, 01:15:04,VALID,917.192,VALID,0,VALID,94.9192,VALID,0,VALID,19.3128,VALID,353,VALID,0.237891,
2010-11-14, 01:16:04,VALID,917.183,VALID,0,VALID,95.0106,VALID,0,VALID,19.2723,VALID,353,VALID,0.289453,
2010-11-14, 01:17:04,VALID,917.188,VALID,0,VALID,95.0488,VALID,0,VALID,19.2528,VALID,353,VALID,0.248047,
2010-11-14, 01:18:04,VALID,917.212,VALID,0,VALID,95.1097,VALID,0,VALID,19.2528,VALID,353,VALID,0.269922,
2010-11-14, 01:19:04,VALID,917.146,VALID,0,VALID,95.0869,VALID,0,VALID,19.2723,VALID,353,VALID,0.353125,
2010-11-14, 01:20:04,VALID,917.191,VALID,0,VALID,95.0106,VALID,0,VALID,19.2933,VALID,353,VALID,0.1625,
2010-11-14, 01:21:04,VALID,917.157,VALID,0,VALID,95.0106,VALID,0,VALID,19.3128,VALID,353,VALID,0,
2010-11-14, 01:22:04,VALID,917.143,VALID,0,VALID,94.9649,VALID,0,VALID,19.3128,VALID,353,VALID,0,
2010-11-14, 01:23:04,VALID,917.117,VALID,0,VALID,94.9878,VALID,0,VALID,19.3323,VALID,353,VALID,0.0339844,
2010-11-14, 01:24:04,VALID,917.116,VALID,0,VALID,94.9573,VALID,0,VALID,19.3323,VALID,353,VALID,0,
2010-11-14, 01:25:04,VALID,917.075,VALID,0,VALID,94.9192,VALID,0,VALID,19.3518,VALID,353,VALID,0.0609375,
2010-11-14, 01:26:04,VALID,917.112,VALID,0,VALID,94.7819,VALID,0,VALID,19.3308,VALID,353,VALID,0.216797,
2010-11-14, 01:27:04,VALID,917.082,VALID,0,VALID,94.6981,VALID,0,VALID,19.3518,VALID,353,VALID,0.0183594,
2010-11-14, 01:28:04,VALID,917.107,VALID,0,VALID,94.66,VALID,0,VALID,19.3503,VALID,353,VALID,0.299219,
2010-11-14, 01:29:04,VALID,917.106,VALID,0,VALID,94.6371,VALID,0,VALID,19.3518,VALID,353,VALID,0.3375,
2010-11-14, 01:30:04,VALID,917.153,VALID,0,VALID,94.6218,VALID,0,VALID,19.3518,VALID,353,VALID,0.429297,
2010-11-14, 01:31:04,VALID,917.126,VALID,0,VALID,94.6981,VALID,0,VALID,19.3323,VALID,353,VALID,0.397656,
2010-11-14, 01:32:04,VALID,917.143,VALID,0,VALID,94.7591,VALID,0,VALID,19.3323,VALID,353,VALID,0.803516,
2010-11-14, 01:33:04,VALID,917.164,VALID,0,VALID,94.6676,VALID,0,VALID,19.3323,VALID,353,VALID,0.644141,
2010-11-14, 01:34:04,VALID,917.173,VALID,0,VALID,94.6752,VALID,0,VALID,19.3713,VALID,353,VALID,0.193359,
2010-11-14, 01:35:04,VALID,917.167,VALID,0,VALID,94.5685,VALID,0,VALID,19.4103,VALID,353,VALID,0.455859,
2010-11-14, 01:36:04,VALID,917.161,VALID,0,VALID,94.4617,VALID,0,VALID,19.4313,VALID,353,VALID,0.195703,
2010-11-14, 01:37:04,VALID,917.146,VALID,0,VALID,94.3855,VALID,0,VALID,19.4103,VALID,353,VALID,0.277734,
2010-11-14, 01:38:04,VALID,917.142,VALID,0,VALID,94.3703,VALID,0,VALID,19.4703,VALID,353,VALID,0.0351563,
2010-11-14, 01:39:04,VALID,917.121,VALID,0,VALID,94.3931,VALID,0,VALID,19.4493,VALID,353,VALID,0.124219,
2010-11-14, 01:40:04,VALID,917.103,VALID,0,VALID,94.2635,VALID,0,VALID,19.4688,VALID,353,VALID,0.492969,
2010-11-14, 01:41:04,VALID,917.091,VALID,0,VALID,94.3474,VALID,0,VALID,19.5093,VALID,353,VALID,0.382031,
2010-11-14, 01:42:04,VALID,917.106,VALID,0,VALID,94.2788,VALID,0,VALID,19.4883,VALID,353,VALID,0.276953,
2010-11-14, 01:43:04,VALID,917.094,VALID,0,VALID,94.1949,VALID,0,VALID,19.5093,VALID,353,VALID,0.473047,
2010-11-14, 01:44:04,VALID,917.058,VALID,0,VALID,94.1797,VALID,0,VALID,19.5063,VALID,353,VALID,0.621094,
2010-11-14, 01:45:04,VALID,917.07,VALID,0,VALID,94.1187,VALID,0,VALID,19.4868,VALID,353,VALID,0.536719,
2010-11-14, 01:46:04,VALID,917.072,VALID,0,VALID,93.8061,VALID,0,VALID,19.5063,VALID,353,VALID,0.853906,
2010-11-14, 01:47:04,VALID,917.048,VALID,0,VALID,93.3716,VALID,0,VALID,19.5648,VALID,353,VALID,0.790625,
2010-11-14, 01:48:04,VALID,917.038,VALID,0,VALID,93.1429,VALID,0,VALID,19.6233,VALID,353,VALID,0.495313,
2010-11-14, 01:49:04,VALID,916.998,VALID,0,VALID,92.9752,VALID,0,VALID,19.6623,VALID,353,VALID,0.184375,
2010-11-14, 01:50:04,VALID,916.969,VALID,0,VALID,92.8227,VALID,0,VALID,19.6818,VALID,354,VALID,0.878906,
2010-11-14, 01:51:04,VALID,917.003,VALID,0,VALID,92.6321,VALID,0,VALID,19.7013,VALID,354,VALID,0.876562,
2010-11-14, 01:52:04,VALID,916.982,VALID,0,VALID,92.4568,VALID,0,VALID,19.7208,VALID,354,VALID,0.417188,
2010-11-14, 01:53:04,VALID,916.922,VALID,0,VALID,92.3882,VALID,0,VALID,19.7613,VALID,354,VALID,0.125391,
2010-11-14, 01:54:04,VALID,916.954,VALID,0,VALID,92.3043,VALID,0,VALID,19.7598,VALID,354,VALID,0.365625,
2010-11-14, 01:55:04,VALID,916.941,VALID,0,VALID,92.068,VALID,0,VALID,19.7598,VALID,354,VALID,0.642578,
2010-11-14, 01:56:04,VALID,916.908,VALID,0,VALID,92.1442,VALID,0,VALID,19.7793,VALID,354,VALID,0.164063,
2010-11-14, 01:57:04,VALID,916.876,VALID,0,VALID,92.3196,VALID,0,VALID,19.7793,VALID,354,VALID,0,
2010-11-14, 01:58:04,VALID,916.861,VALID,0,VALID,92.5711,VALID,0,VALID,19.7808,VALID,354,VALID,0,
2010-11-14, 01:59:04,VALID,916.817,VALID,0,VALID,92.7617,VALID,0,VALID,19.7613,VALID,354,VALID,0,
2010-11-14, 02:00:04,VALID,916.828,VALID,0,VALID,92.9523,VALID,0,VALID,19.6818,VALID,354,VALID,0,
2010-11-14, 02:01:04,VALID,916.81,VALID,0,VALID,92.9294,VALID,0.107441,VALID,19.6428,VALID,354,VALID,0,
2010-11-14, 02:02:04,VALID,916.813,VALID,0,VALID,92.9523,VALID,0,VALID,19.6443,VALID,354,VALID,0,
2010-11-14, 02:03:04,VALID,916.8,VALID,0,VALID,92.9904,VALID,0,VALID,19.6038,VALID,354,VALID,0.955469,
2010-11-14, 02:04:04,VALID,916.857,VALID,0,VALID,93.0362,VALID,0,VALID,19.6038,VALID,354,VALID,0.383984,
2010-11-14, 02:05:04,VALID,916.85,VALID,0,VALID,92.9142,VALID,0.107441,VALID,19.5843,VALID,354,VALID,0.553906,
2010-11-14, 02:06:04,VALID,916.845,VALID,0,VALID,92.8913,VALID,0,VALID,19.5843,VALID,354,VALID,0.820313,
2010-11-14, 02:07:04,VALID,916.881,VALID,0,VALID,92.8303,VALID,0,VALID,19.5843,VALID,354,VALID,0.270703,
2010-11-14, 02:08:04,VALID,916.865,VALID,0,VALID,92.7922,VALID,0,VALID,19.5843,VALID,354,VALID,0.415625,
2010-11-14, 02:09:04,VALID,916.83,VALID,0,VALID,92.7236,VALID,0,VALID,19.6233,VALID,354,VALID,0.585547,
2010-11-14, 02:10:04,VALID,916.821,VALID,0,VALID,92.6702,VALID,0,VALID,19.6443,VALID,354,VALID,0.349609,
2010-11-14, 02:11:04,VALID,916.791,VALID,0,VALID,92.5635,VALID,0,VALID,19.6428,VALID,354,VALID,0.467578,
2010-11-14, 02:12:04,VALID,916.775,VALID,0,VALID,92.6016,VALID,0,VALID,19.6443,VALID,354,VALID,0.19375,
2010-11-14, 02:13:04,VALID,916.74,VALID,0,VALID,92.6245,VALID,0.107441,VALID,19.6248,VALID,354,VALID,0.346094,
2010-11-14, 02:14:04,VALID,916.715,VALID,0,VALID,92.6702,VALID,0.107441,VALID,19.6038,VALID,354,VALID,0.300391,
2010-11-14, 02:15:04,VALID,916.733,VALID,0,VALID,92.8532,VALID,0.107441,VALID,19.6038,VALID,354,VALID,0.234766,
2010-11-14, 02:16:04,VALID,916.728,VALID,0,VALID,92.838,VALID,0,VALID,19.5843,VALID,354,VALID,0.327734,
2010-11-14, 02:17:04,VALID,916.7,VALID,0,VALID,92.8075,VALID,0,VALID,19.5843,VALID,354,VALID,0.375,
2010-11-14, 02:18:04,VALID,916.665,VALID,0,VALID,92.7922,VALID,0,VALID,19.5843,VALID,354,VALID,0.317187,
2010-11-14, 02:19:04,VALID,916.646,VALID,0,VALID,92.777,VALID,0,VALID,19.5648,VALID,354,VALID,0.345313,
2010-11-14, 02:20:04,VALID,916.705,VALID,0,VALID,92.8303,VALID,0.107441,VALID,19.5843,VALID,354,VALID,0.2375,
2010-11-14, 02:21:04,VALID,916.678,VALID,0,VALID,92.8303,VALID,0,VALID,19.5648,VALID,354,VALID,0,
2010-11-14, 02:22:04,VALID,916.679,VALID,0,VALID,92.8761,VALID,0,VALID,19.5648,VALID,354,VALID,0,
2010-11-14, 02:23:04,VALID,916.648,VALID,0,VALID,92.9828,VALID,0,VALID,19.5663,VALID,354,VALID,0,
2010-11-14, 02:24:04,VALID,916.626,VALID,0,VALID,93.0362,VALID,0,VALID,19.5258,VALID,354,VALID,0,
2010-11-14, 02:25:04,VALID,916.593,VALID,0,VALID,93.1505,VALID,0.107441,VALID,19.5258,VALID,354,VALID,0,
2010-11-14, 02:26:04,VALID,916.564,VALID,0,VALID,93.2496,VALID,0,VALID,19.5273,VALID,354,VALID,0,
2010-11-14, 02:27:04,VALID,916.571,VALID,0,VALID,93.3335,VALID,0.107441,VALID,19.5063,VALID,354,VALID,0,
2010-11-14, 02:28:04,VALID,916.581,VALID,0,VALID,93.3716,VALID,0,VALID,19.5078,VALID,354,VALID,0,
2010-11-14, 02:29:04,VALID,916.558,VALID,0,VALID,93.3792,VALID,0,VALID,19.4688,VALID,354,VALID,0,
2010-11-14, 02:30:04,VALID,916.579,VALID,0,VALID,93.5164,VALID,0,VALID,19.4283,VALID,354,VALID,0,
2010-11-14, 02:31:04,VALID,916.581,VALID,0,VALID,93.6613,VALID,0,VALID,19.3908,VALID,354,VALID,0,
2010-11-14, 02:32:04,VALID,916.597,VALID,0,VALID,93.9052,VALID,0,VALID,19.3113,VALID,354,VALID,0,
2010-11-14, 02:33:04,VALID,916.619,VALID,0,VALID,94.0882,VALID,0,VALID,19.2918,VALID,354,VALID,0,
2010-11-14, 02:34:04,VALID,916.631,VALID,0,VALID,94.2559,VALID,0.107441,VALID,19.2723,VALID,354,VALID,0,
2010-11-14, 02:35:04,VALID,916.63,VALID,0,VALID,94.4236,VALID,0,VALID,19.2528,VALID,354,VALID,0,
2010-11-14, 02:36:04,VALID,916.624,VALID,0,VALID,94.5151,VALID,0,VALID,19.2528,VALID,354,VALID,0.145703,
2010-11-14, 02:37:04,VALID,916.671,VALID,0,VALID,94.5761,VALID,0,VALID,19.2723,VALID,354,VALID,0.0925781,
2010-11-14, 02:38:04,VALID,916.645,VALID,0,VALID,94.4694,VALID,0,VALID,19.2723,VALID,354,VALID,0,
2010-11-14, 02:39:04,VALID,916.671,VALID,0,VALID,94.3931,VALID,0,VALID,19.2933,VALID,354,VALID,0,
2010-11-14, 02:40:04,VALID,916.658,VALID,0,VALID,94.3703,VALID,0,VALID,19.2738,VALID,354,VALID,0,
2010-11-14, 02:41:04,VALID,916.652,VALID,0,VALID,94.3626,VALID,0,VALID,19.2319,VALID,354,VALID,0,
2010-11-14, 02:42:04,VALID,916.642,VALID,0,VALID,94.416,VALID,0,VALID,19.2334,VALID,354,VALID,0,
2010-11-14, 02:43:04,VALID,916.643,VALID,0,VALID,94.4694,VALID,0.107441,VALID,19.2334,VALID,354,VALID,0,
2010-11-14, 02:44:04,VALID,916.596,VALID,0,VALID,94.4999,VALID,0,VALID,19.2753,VALID,354,VALID,0,
2010-11-14, 02:45:04,VALID,916.602,VALID,0,VALID,94.4846,VALID,0,VALID,19.2753,VALID,354,VALID,0,
2010-11-14, 02:46:04,VALID,916.592,VALID,0,VALID,94.4694,VALID,0,VALID,19.2753,VALID,354,VALID,0,
2010-11-14, 02:47:04,VALID,916.596,VALID,0,VALID,94.4465,VALID,0,VALID,19.2753,VALID,354,VALID,0,
2010-11-14, 02:48:04,VALID,916.606,VALID,0,VALID,94.4236,VALID,0,VALID,19.2543,VALID,354,VALID,0.369141,
2010-11-14, 02:49:04,VALID,916.603,VALID,0,VALID,94.416,VALID,0,VALID,19.2558,VALID,354,VALID,0.357422,
2010-11-14, 02:50:04,VALID,916.555,VALID,0,VALID,94.4846,VALID,0,VALID,19.2153,VALID,354,VALID,0.418359,
2010-11-14, 02:51:04,VALID,916.591,VALID,0,VALID,94.5761,VALID,0,VALID,19.2153,VALID,354,VALID,0.468359,
2010-11-14, 02:52:04,VALID,916.616,VALID,0,VALID,94.6523,VALID,0,VALID,19.2348,VALID,354,VALID,0.287109,
2010-11-14, 02:53:04,VALID,916.586,VALID,0,VALID,94.4541,VALID,0,VALID,19.2153,VALID,354,VALID,0.291016,
2010-11-14, 02:54:04,VALID,916.626,VALID,0,VALID,94.5609,VALID,0,VALID,19.2168,VALID,354,VALID,0.580078,
2010-11-14, 02:55:04,VALID,916.628,VALID,0,VALID,94.6981,VALID,0,VALID,19.2153,VALID,354,VALID,0.595312,
2010-11-14, 02:56:04,VALID,916.644,VALID,0,VALID,94.6142,VALID,0,VALID,19.2558,VALID,354,VALID,0.359375,
2010-11-14, 02:57:04,VALID,916.651,VALID,0,VALID,94.477,VALID,0,VALID,19.2543,VALID,354,VALID,0,
2010-11-14, 02:58:04,VALID,916.69,VALID,0,VALID,94.3703,VALID,0,VALID,19.2948,VALID,354,VALID,0,
2010-11-14, 02:59:04,VALID,916.695,VALID,0,VALID,94.3855,VALID,0,VALID,19.2933,VALID,354,VALID,0.224609,
2010-11-14, 03:00:04,VALID,916.706,VALID,0,VALID,94.3855,VALID,0,VALID,19.2738,VALID,354,VALID,0.639844,
2010-11-14, 03:01:04,VALID,916.714,VALID,0,VALID,94.4541,VALID,0,VALID,19.2543,VALID,354,VALID,0.478125,
2010-11-14, 03:02:04,VALID,916.707,VALID,0,VALID,94.5151,VALID,0,VALID,19.2543,VALID,354,VALID,0.570703,
2010-11-14, 03:03:04,VALID,916.731,VALID,0,VALID,94.5837,VALID,0.107441,VALID,19.2139,VALID,354,VALID,0.320703,
2010-11-14, 03:04:04,VALID,916.716,VALID,0,VALID,94.6752,VALID,0.107441,VALID,19.1958,VALID,354,VALID,0.455859,
2010-11-14, 03:05:04,VALID,916.689,VALID,0,VALID,94.8124,VALID,0,VALID,19.1958,VALID,354,VALID,0.418359,
2010-11-14, 03:06:04,VALID,916.705,VALID,0,VALID,94.942,VALID,0,VALID,19.1958,VALID,354,VALID,0.297656,
2010-11-14, 03:07:04,VALID,916.651,VALID,0,VALID,94.9801,VALID,0,VALID,19.1958,VALID,354,VALID,0.482812,
2010-11-14, 03:08:04,VALID,916.641,VALID,0,VALID,95.003,VALID,0,VALID,19.1763,VALID,354,VALID,0.389062,
2010-11-14, 03:09:04,VALID,916.638,VALID,0,VALID,95.0335,VALID,0,VALID,19.1763,VALID,354,VALID,0.497266,
2010-11-14, 03:10:04,VALID,916.635,VALID,0,VALID,95.125,VALID,0,VALID,19.1554,VALID,354,VALID,0.486719,
2010-11-14, 03:11:04,VALID,916.633,VALID,0,VALID,95.1631,VALID,0,VALID,19.1359,VALID,354,VALID,0.541406,
2010-11-14, 03:12:04,VALID,916.636,VALID,0,VALID,95.1631,VALID,0,VALID,19.1554,VALID,354,VALID,0.627344,
2010-11-14, 03:13:04,VALID,916.641,VALID,0,VALID,95.1936,VALID,0,VALID,19.1763,VALID,354,VALID,0.70625,
2010-11-14, 03:14:04,VALID,916.633,VALID,0,VALID,95.2393,VALID,0,VALID,19.1763,VALID,354,VALID,0.696484,
2010-11-14, 03:15:04,VALID,916.622,VALID,0,VALID,95.2546,VALID,0,VALID,19.1944,VALID,354,VALID,0.815625,
2010-11-14, 03:16:04,VALID,916.653,VALID,0,VALID,95.1631,VALID,0,VALID,19.2543,VALID,354,VALID,0.771875,
2010-11-14, 03:17:04,VALID,916.628,VALID,0,VALID,94.9649,VALID,0,VALID,19.2933,VALID,354,VALID,0.589453,
2010-11-14, 03:18:04,VALID,916.644,VALID,0,VALID,94.8353,VALID,0,VALID,19.2723,VALID,354,VALID,0.478516,
2010-11-14, 03:19:04,VALID,916.648,VALID,0,VALID,94.7286,VALID,0,VALID,19.3128,VALID,354,VALID,0.366797,
2010-11-14, 03:20:04,VALID,916.655,VALID,0,VALID,94.6447,VALID,0,VALID,19.3323,VALID,354,VALID,0.210547,
2010-11-14, 03:21:04,VALID,916.678,VALID,0,VALID,94.5609,VALID,0,VALID,19.3518,VALID,354,VALID,0.00585938,
2010-11-14, 03:22:04,VALID,916.67,VALID,0,VALID,94.4846,VALID,0,VALID,19.3323,VALID,354,VALID,0.303125,
2010-11-14, 03:23:04,VALID,916.682,VALID,0,VALID,94.4084,VALID,0,VALID,19.3713,VALID,354,VALID,0.281641,
2010-11-14, 03:24:04,VALID,916.657,VALID,0,VALID,94.3245,VALID,0,VALID,19.3713,VALID,354,VALID,0.150391,
2010-11-14, 03:25:04,VALID,916.655,VALID,0,VALID,94.233,VALID,0,VALID,19.3908,VALID,354,VALID,0.16875,
2010-11-14, 03:26:04,VALID,916.621,VALID,0,VALID,94.1034,VALID,0,VALID,19.4103,VALID,354,VALID,0.316406,
2010-11-14, 03:27:04,VALID,916.616,VALID,0,VALID,93.8595,VALID,0,VALID,19.3698,VALID,354,VALID,0.333203,
2010-11-14, 03:28:04,VALID,916.617,VALID,0,VALID,94.0272,VALID,0,VALID,19.3323,VALID,354,VALID,0.484766,
2010-11-14, 03:29:04,VALID,916.63,VALID,0,VALID,94.2254,VALID,0,VALID,19.2933,VALID,354,VALID,0.601953,
2010-11-14, 03:30:04,VALID,916.623,VALID,0,VALID,94.4236,VALID,0,VALID,19.2348,VALID,354,VALID,0.581641,
2010-11-14, 03:31:04,VALID,916.628,VALID,0,VALID,94.6295,VALID,0,VALID,19.1958,VALID,354,VALID,0.617188,
2010-11-14, 03:32:04,VALID,916.614,VALID,0,VALID,94.8048,VALID,0,VALID,19.1568,VALID,354,VALID,0.646094,
2010-11-14, 03:33:04,VALID,916.622,VALID,0,VALID,94.9192,VALID,0,VALID,19.1373,VALID,354,VALID,0.708594,
2010-11-14, 03:34:04,VALID,916.597,VALID,0,VALID,94.9801,VALID,0,VALID,19.1178,VALID,354,VALID,0.64375,
2010-11-14, 03:35:04,VALID,916.617,VALID,0,VALID,95.1555,VALID,0,VALID,19.0983,VALID,354,VALID,0.684375,
2010-11-14, 03:36:04,VALID,916.612,VALID,0,VALID,95.2012,VALID,0,VALID,19.1178,VALID,354,VALID,0.802344,
2010-11-14, 03:37:04,VALID,916.643,VALID,0,VALID,95.1783,VALID,0,VALID,19.1373,VALID,354,VALID,0.938672,
2010-11-14, 03:38:04,VALID,916.641,VALID,0,VALID,95.0869,VALID,0,VALID,19.1164,VALID,354,VALID,0.696094,
2010-11-14, 03:39:04,VALID,916.656,VALID,0,VALID,95.0411,VALID,0,VALID,19.1373,VALID,354,VALID,0.731641,
2010-11-14, 03:40:04,VALID,916.642,VALID,0,VALID,95.0411,VALID,0,VALID,19.0983,VALID,354,VALID,0.969141,
2010-11-14, 03:41:04,VALID,916.651,VALID,0,VALID,95.0792,VALID,0,VALID,19.0983,VALID,354,VALID,1.03867,
2010-11-14, 03:42:04,VALID,916.684,VALID,0,VALID,95.125,VALID,0.107441,VALID,19.0774,VALID,354,VALID,1.04375,
2010-11-14, 03:43:04,VALID,916.673,VALID,0,VALID,95.2165,VALID,0,VALID,19.0788,VALID,355,VALID,1.00195,
2010-11-14, 03:44:04,VALID,916.67,VALID,0,VALID,95.2698,VALID,0,VALID,19.0398,VALID,355,VALID,0.822656,
2010-11-14, 03:45:04,VALID,916.658,VALID,0,VALID,95.3308,VALID,0,VALID,19.0203,VALID,356,VALID,0.705078,
2010-11-14, 03:46:04,VALID,916.651,VALID,0,VALID,95.3994,VALID,0,VALID,19.0203,VALID,356,VALID,0.895703,